DW4273 Weather Reports


Display with metric or nautical units.
time (UTC)temp
F
wind
direction
speed
MPH
gust
MPH
rain 1hr
in
rain 24hr
in
rain mn
in
humidity
%
barometer
mb
20260903121016 78 90 1.0 3.0 0.00 0.00 0.00 83 1014.3
20260903120016 78 90 3.0 6.0 0.00 0.00 0.00 82 1014.2
20260903115016 78 68 2.0 3.0 0.00 0.00 0.00 82 1014.2
20260903114016 78 113 2.0 5.0 0.00 0.00 0.00 81 1014.1
20260903113016 78 0 3.0 7.0 0.00 0.00 0.00 81 1014.3
20260903112016 78 45 6.0 11.0 0.00 0.00 0.00 82 1013.9
20260903111016 78 248 4.0 7.0 0.00 0.00 0.00 81 1013.8
20260903110016 78 225 7.0 10.0 0.00 0.00 0.00 81 1013.2
20260903105057 78 225 7.0 11.0 0.00 0.00 0.00 81 1013.3
20260903104016 78 225 8.0 13.0 0.00 0.00 0.00 82 1013.2
20260903103016 78 225 7.0 9.0 0.00 0.00 0.00 82 1013.4
20260903102016 78 225 6.0 9.0 0.00 0.00 0.00 84 1013.4
20260903101016 77 225 4.0 8.0 0.00 0.00 0.00 86 1013.5
20260903100016 76 225 4.0 5.0 0.00 0.00 0.00 87 1013.3
20260903095016 76 225 3.0 6.0 0.00 0.00 0.00 87 1013.4
20260903094036 76 203 3.0 5.0 0.00 0.00 0.00 87 1013.2
20260903093016 76 203 3.0 5.0 0.00 0.00 0.00 87 1013.3
20260903092036 76 203 3.0 5.0 0.00 0.00 0.00 88 1013.3
20260903091016 76 203 3.0 4.0 0.00 0.00 0.00 88 1013.4
20260903090036 76 203 2.0 5.0 0.00 0.00 0.00 89 1013.2
20260903085036 76 203 3.0 6.0 0.00 0.00 0.00 89 1013.2
20260903084036 75 180 2.0 4.0 0.00 0.00 0.00 89 1013.0
20260903083036 75 203 1.0 3.0 0.00 0.00 0.00 87 1013.1
20260903082056 76 0.0 0.0 0.00 0.00 0.00 87 1013.2
20260903081016 76 0.0 0.0 0.00 0.00 0.00 86 1013.4
20260903080016 76 0.0 0.0 0.00 0.00 0.00 85 1013.4
20260903075016 76 0.0 0.0 0.00 0.00 0.00 84 1013.6
20260903074016 77 203 1.0 3.0 0.00 0.00 0.00 83 1013.6
20260903073036 78 203 3.0 5.0 0.00 0.00 0.00 82 1013.5
20260903072016 79 113 1.0 2.0 0.00 0.00 0.00 80 1013.5
20260903071036 79 203 1.0 3.0 0.00 0.00 0.00 80 1013.5
20260903070116 80 45 1.0 2.0 0.00 0.00 0.00 79 1013.8
20260903065016 80 248 1.0 4.0 0.00 0.00 0.00 79 1013.8
20260903064016 80 338 4.0 8.0 0.00 0.00 0.00 79 1013.9
20260903063016 80 248 4.0 10.0 0.00 0.00 0.00 80 1013.8
20260903062016 80 23 5.0 10.0 0.00 0.00 0.00 80 1014.2
20260903061016 80 248 6.0 8.0 0.00 0.00 0.00 79 1013.4
20260903060016 80 248 6.0 8.0 0.00 0.00 0.00 78 1013.4
20260903055036 81 248 7.0 10.0 0.00 0.00 0.00 78 1013.4
20260903054116 81 248 7.0 13.0 0.00 0.00 0.00 78 1013.4
20260903053016 81 248 8.0 13.0 0.00 0.00 0.00 77 1013.4
20260903052016 81 225 7.0 10.0 0.00 0.00 0.00 77 1013.2
20260903051016 81 225 8.0 11.0 0.00 0.00 0.00 77 1013.1
20260903050036 81 225 8.0 11.0 0.00 0.00 0.00 77 1012.9
20260903045016 81 225 8.0 13.0 0.00 0.00 0.00 78 1012.7
20260903044016 81 225 8.0 11.0 0.00 0.00 0.00 77 1012.7
20260903043016 81 225 7.0 11.0 0.00 0.00 0.00 77 1012.6
20260903042016 81 225 7.0 9.0 0.00 0.00 0.00 76 1012.5
20260903041016 81 225 8.0 12.0 0.00 0.00 0.00 76 1012.3
20260903040016 81 225 7.0 11.0 0.00 0.00 0.00 76 1012.4
20260903035015 81 225 7.0 12.0 0.00 0.00 0.00 76 1012.1
20260903034035 81 225 7.0 9.0 0.00 0.00 0.00 75 1012.0
20260903033036 82 225 8.0 11.0 0.00 0.00 0.00 75 1011.9
20260903032015 81 203 8.0 12.0 0.00 0.00 0.00 75 1012.1
20260903031016 82 203 7.0 10.0 0.00 0.00 0.00 74 1012.3
20260903030055 82 203 7.0 10.0 0.00 0.00 0.00 74 1012.6
20260903025605 82 225 7.0 9.0 0.00 0.00 0.00 74 1012.6
20260903025016 82 203 7.0 9.0 0.00 0.00 0.00 74 1012.7
20260903024016 82 203 6.0 9.0 0.00 0.00 0.00 74 1012.8
20260903023015 82 203 6.0 8.0 0.00 0.00 0.00 73 1012.8
20260903022016 82 203 6.0 9.0 0.00 0.00 0.00 73 1012.9
20260903021016 82 203 6.0 8.0 0.00 0.00 0.00 72 1012.9
20260903020015 82 203 5.0 8.0 0.00 0.00 0.00 72 1012.9
20260903015036 82 203 5.0 8.0 0.00 0.00 0.00 72 1013.0
20260903014016 82 203 5.0 6.0 0.00 0.00 0.00 73 1012.9
20260903013015 82 203 5.0 7.0 0.00 0.00 0.00 73 1012.9
20260903012036 82 225 4.0 6.0 0.00 0.00 0.00 74 1013.0
20260903011036 82 225 3.0 5.0 0.00 0.00 0.00 72 1012.8
20260903010016 83 203 5.0 7.0 0.00 0.00 0.00 73 1012.8
20260903005056 82 225 5.0 7.0 0.00 0.00 0.00 74 1012.6
20260903004016 82 225 4.0 6.0 0.00 0.00 0.00 73 1012.5
20260903003036 84 225 4.0 5.0 0.00 0.00 0.00 71 1012.5
20260903002016 84 203 4.0 6.0 0.00 0.00 0.00 70 1012.5
20260903001036 84 203 4.0 6.0 0.00 0.00 0.00 71 1012.4
20260903000016 85 225 3.0 4.0 0.00 0.00 0.00 69 1012.4
20260902235016 86 248 3.0 4.0 0.00 0.00 0.00 67 1012.6
20260902234036 87 225 3.0 5.0 0.00 0.00 0.00 65 1012.5
20260902233016 88 203 4.0 5.0 0.00 0.00 0.00 63 1012.4
20260902232036 88 203 5.0 7.0 0.00 0.00 0.00 62 1012.4
20260902231036 89 203 6.0 9.0 0.00 0.00 0.00 61 1012.5
20260902230016 89 203 6.0 9.0 0.00 0.00 0.00 61 1012.5
20260902225036 89 225 6.0 10.0 0.00 0.00 0.00 61 1012.5
20260902224056 90 225 7.0 11.0 0.00 0.00 0.00 60 1012.4
20260902223036 90 225 8.0 11.0 0.00 0.00 0.00 59 1012.4
20260902222016 89 225 7.0 9.0 0.00 0.00 0.00 60 1012.4
20260902221016 90 203 7.0 11.0 0.00 0.00 0.00 60 1012.4
20260902220016 91 203 7.0 12.0 0.00 0.00 0.00 58 1012.5
20260902215016 91 225 8.0 12.0 0.00 0.00 0.00 57 1012.6
20260902214016 91 248 8.0 11.0 0.00 0.00 0.00 55 1012.7
20260902213036 92 225 6.0 9.0 0.00 0.00 0.00 56 1012.8
20260902212016 92 225 9.0 14.0 0.00 0.00 0.00 53 1012.7
20260902211016 92 248 10.0 14.0 0.00 0.00 0.00 53 1013.0
20260902210016 93 203 10.0 19.0 0.00 0.00 0.00 52 1013.1
20260902205016 93 225 9.0 16.0 0.00 0.00 0.00 54 1013.2
20260902204016 93 225 8.0 11.0 0.00 0.00 0.00 55 1013.2
20260902203016 93 248 10.0 14.0 0.00 0.00 0.00 54 1013.3
20260902202016 93 225 10.0 15.0 0.00 0.00 0.00 52 1013.4
20260902201016 93 248 10.0 15.0 0.00 0.00 0.00 54 1013.4
20260902200036 93 225 11.0 17.0 0.00 0.00 0.00 51 1013.4
20260902195036 92 248 11.0 14.0 0.00 0.00 0.00 52 1013.5
20260902194547 93 248 9.0 11.0 0.00 0.00 0.00 52 1013.6
20260902193516 93 225 8.0 14.0 0.00 0.00 0.00 53 1013.6
20260902192516 93 248 7.0 11.0 0.00 0.00 0.00 53 1013.7
20260902191536 93 225 9.0 15.0 0.00 0.00 0.00 54 1013.9
20260902190556 93 248 7.0 11.0 0.00 0.00 0.00 54 1014.0
20260902185516 93 225 10.0 15.0 0.00 0.00 0.00 52 1014.1
20260902184536 92 225 9.0 13.0 0.00 0.00 0.00 55 1014.2
20260902183516 93 203 8.0 12.0 0.00 0.00 0.00 53 1014.2
20260902182516 92 203 8.0 16.0 0.00 0.00 0.00 55 1014.3
20260902181536 92 225 6.0 10.0 0.00 0.00 0.00 55 1014.4
20260902180536 92 203 8.0 11.0 0.00 0.00 0.00 58 1014.6
20260902175516 92 248 6.0 11.0 0.00 0.00 0.00 57 1014.6
20260902174516 92 225 4.0 9.0 0.00 0.00 0.00 60 1014.8
20260902173516 91 248 5.0 8.0 0.00 0.00 0.00 60 1015.0
20260902172516 91 203 5.0 8.0 0.00 0.00 0.00 59 1015.1
20260902171516 92 225 6.0 11.0 0.00 0.00 0.00 60 1015.3
20260902170516 91 203 2.0 6.0 0.00 0.00 0.00 58 1015.2
20260902165516 91 248 4.0 7.0 0.00 0.00 0.00 60 1015.2
20260902164516 90 270 2.0 5.0 0.00 0.00 0.00 61 1015.3
20260902163536 90 270 3.0 7.0 0.00 0.00 0.00 62 1015.3
20260902162536 89 270 1.0 4.0 0.00 0.00 0.00 61 1015.5
20260902161516 89 293 2.0 5.0 0.00 0.00 0.00 63 1015.4
20260902160516 89 315 1.0 4.0 0.00 0.00 0.00 64 1015.4
20260902155516 88 293 2.0 4.0 0.00 0.00 0.00 66 1015.5
20260902154516 88 203 3.0 7.0 0.00 0.00 0.00 67 1015.5
20260902153516 87 225 2.0 4.0 0.00 0.00 0.00 69 1015.6
20260902152516 86 248 4.0 8.0 0.00 0.00 0.00 68 1015.6
20260902151537 86 248 4.0 7.0 0.00 0.00 0.00 72 1015.7
20260902150516 85 225 4.0 6.0 0.00 0.00 0.00 72 1015.6
20260902145516 84 225 4.0 7.0 0.00 0.00 0.00 73 1015.6
20260902144516 84 225 4.0 6.0 0.00 0.00 0.00 74 1015.6
20260902143617 83 225 5.0 8.0 0.00 0.00 0.00 76 1015.4
20260902142516 83 225 6.0 12.0 0.00 0.00 0.00 76 1015.4
20260902141556 82 225 6.0 9.0 0.00 0.00 0.00 77 1015.3
20260902140536 81 225 5.0 8.0 0.00 0.00 0.00 80 1015.2
20260902135516 81 225 6.0 10.0 0.00 0.00 0.00 81 1015.2
20260902134517 80 225 5.0 8.0 0.00 0.00 0.00 83 1015.1
20260902133516 79 225 6.0 7.0 0.00 0.00 0.00 86 1015.1
20260902132516 78 225 5.0 7.0 0.00 0.00 0.00 88 1015.1
20260902131536 77 248 4.0 6.0 0.00 0.00 0.00 90 1015.2
20260902130516 76 225 4.0 8.0 0.00 0.00 0.00 91 1015.1
20260902125536 76 225 5.0 8.0 0.00 0.00 0.00 91 1015.2
20260902124516 75 225 4.0 7.0 0.00 0.00 0.00 93 1015.2
20260902123556 75 203 3.0 6.0 0.00 0.00 0.00 93 1015.2
20260902122516 74 203 5.0 7.0 0.00 0.00 0.00 94 1015.1